Overview Statistics Trail Chart Weather Telemetry Raw packets
 

This is the latest recevied weather packets stored in our database for station/object WA6ODQ-13. If no packets are shown the sender has not sent any weather packets the latest 10 day(s).

<< 56 57 58 59 60 61 62 >>
Time Temp. Humidity Pressure Rain* Wind** Luminosity Snow
1788286848 21.67° C 56% 1014.6 hPa 0 mm - 642 W/m² -
1788286549 21.67° C 57% 1014.2 hPa 0 mm - 526 W/m² -
1788286241 21.11° C 58% 1014.1 hPa 0 mm - 552 W/m² -
1788285940 21.11° C 60% 1014.3 hPa 0 mm - 313 W/m² -
1788285634 20.56° C 63% 1014 hPa 0 mm - 486 W/m² -
1788285328 20.56° C 64% 1014.3 hPa 0 mm - 532 W/m² -
1788285023 20° C 64% 1014.2 hPa 0 mm - 525 W/m² -
1788284719 20° C 65% 1014.2 hPa 0 mm - 436 W/m² -
1788284415 20° C 66% 1014.1 hPa 0 mm - 444 W/m² -
1788284114 19.44° C 67% 1014.2 hPa 0 mm - 373 W/m² -
1788283810 19.44° C 68% 1014.1 hPa 0 mm - 197 W/m² -
1788283506 19.44° C 68% 1014.1 hPa 0 mm - 405 W/m² -
1788283203 19.44° C 68% 1014 hPa 0 mm - 298 W/m² -
1788282902 19.44° C 68% 1013.7 hPa 0 mm - 280 W/m² -
1788282601 18.89° C 70% 1014.1 hPa 0 mm - 483 W/m² -
1788282297 18.89° C 70% 1014 hPa 0 mm - 250 W/m² -
1788281996 18.89° C 70% 1014 hPa 0 mm - 249 W/m² -
1788281691 19.44° C 69% 1013.6 hPa 0 mm - 227 W/m² -
1788281387 18.89° C 69% 1013.9 hPa 0 mm - 152 W/m² -
1788281082 18.89° C 70% 1013.9 hPa 0 mm - 130 W/m² -
1788280777 18.89° C 68% 1013.7 hPa 0 mm - 107 W/m² -
1788280472 19.44° C 68% 1013.5 hPa 0 mm - 106 W/m² -
1788280171 18.89° C 68% 1013.5 hPa 0 mm - 364 W/m² -
1788279866 18.89° C 67% 1013.6 hPa 0 mm - 334 W/m² -
1788279560 18.89° C 69% 1013.4 hPa 0 mm - 179 W/m² -

* Rain latest hour (hover to see other rain measurements)
** Current wind speed in m/s (hover to see current wind gust speed)